Location: *
(45.8500°S, 157.1333°W)
Time: 01:40:17
(UTC+00:00)

Daily predictions for brighter satellites

Satellite Brightness Start Highest point End
(mag) Time Altitude Azimuth Time Altitude Azimuth Time Altitude Azimuth
YAOGAN 6 3.7 03:27:09 10° S 03:30:37 45° WSW 03:34:04 10° NW
Cosmos 2082 Rocket 3.8 03:30:47 10° S 03:33:49 14° SE 03:36:51 10° ESE
Cosmos 2221 Rocket 4.3 03:30:09 10° S 03:34:14 32° ESE 03:38:15 10° NE
ATLAS CENTAUR R/B 3.3 03:34:41 10° W 03:37:06 17° SW 03:39:30 10° S
ATLAS 3B R/B 3.3 03:30:16 10° NW 03:37:43 63° SW 03:44:49 10° SE
Gbstr 26 Del rocket 3.9 03:34:56 10° WSW 03:40:50 67° NW 03:45:32 10° NE
Cosmos 1869 Rocket 3.9 03:37:54 10° NNW 03:42:17 71° W 03:46:46 10° S
Cosmos 1975 2.8 03:38:41 10° N 03:42:43 77° E 03:46:52 10° SSE
In-Cosmos 22 4.2 03:40:09 10° S 03:45:47 85° E 03:51:12 10° N
COSMO-SKYMED 1 2.8 03:42:03 10° N 03:46:26 81° WNW 03:50:54 10° SSW
Cosmos 2263 Rocket 4.2 03:43:07 10° W 03:47:22 21° SW 03:51:39 10° S
Cosmos 1092 Rocket 4.2 03:41:41 10° NNE 03:47:52 55° E 03:54:07 10° SSE
Okean 2 3.5 03:44:12 10° S 03:48:20 56° ESE 03:52:26 10° NNE
SJ-12 4.1 03:44:55 10° S 03:49:03 78° WSW 03:53:08 10° NNW
Cosmos 2278 Rocket 3.6 03:47:31 10° NE 03:51:21 19° E 03:54:37 12° ESE
ISS -3.6 03:48:39 10° WSW 03:52:05 77° NNW 03:55:28 10° NE
Cosmos 923 Rocket 4.3 03:47:22 10° NNW 03:52:35 70° WSW 03:57:52 10° SSE
Cosmos 1726 3.8 03:51:04 10° ENE 03:53:01 14° E 03:53:50 13° ESE
Cosmos 967 Rocket 4.5 03:47:25 10° SSW 03:53:48 70° SE 04:00:11 10° NE
Cosmos 1733 Rocket 3.2 03:50:50 10° N 03:55:05 54° E 03:59:25 10° SSE
CZ-2C R/B 4.5 03:53:16 10° S 03:56:40 31° WSW 03:59:58 10° NW
CZ-4C R/B 3.1 03:49:06 10° NNW 03:57:29 67° ENE 04:04:30 10° SE
USA 215 3.4 03:51:40 10° SE 03:58:20 85° SW 04:04:57 10° WNW
Cosmos 1680 Rocket 3.6 03:53:17 10° NNW 03:58:34 82° WSW 04:03:56 10° SSE
H-2A R/B 2.9 03:55:53 10° SSE 04:00:34 31° E 04:05:16 10° NNE
Meteor 1-31 Rocket 2.7 04:00:02 10° SSE 04:03:56 76° ENE 04:07:45 10° N
SL-4 R/B 4.2 04:00:25 10° WSW 04:04:01 28° NW 04:07:24 10° NNE
Cosmos 1844 Rocket 3.5 04:02:17 10° NW 04:07:48 51° WSW 04:13:24 10° SSE
CZ-4B R/B 4.1 04:04:23 11° SE 04:08:08 27° E 04:11:59 10° NNE
ADEOS 4.1 04:04:01 10° SSE 04:08:59 40° E 04:13:53 10° NNE
Cosmos 1766 4.4 04:06:09 10° NE 04:09:14 23° E 04:10:46 18° SE
KORONAS-FOTON 4.1 04:05:53 10° SSW 04:09:48 73° W 04:13:42 10° N
Cosmos 2112 Rocket 4.2 04:06:16 10° NNW 04:11:31 74° WSW 04:16:52 10° SSE
Cosmos 1626 2.2 04:10:36 10° SSW 04:14:21 78° W 04:18:02 10° N
Cosmos 1452 Rocket 4.0 04:11:10 10° S 04:16:11 39° ESE 04:21:09 10° NE
Cosmos 1371 Rocket 4.4 04:12:00 10° SSW 04:17:13 69° WNW 04:22:23 10° N
FengYun 1-2 T 4.3 04:12:49 10° SSE 04:18:23 62° E 04:23:55 10° N
DMSP B5D1-3 4.5 04:14:02 10° NNE 04:19:12 77° ESE 04:24:25 10° S
CZ-2C R/B 4.5 04:15:18 10° S 04:20:42 44° WSW 04:26:11 10° NW
Cosmos 1378 Rocket 3.5 04:18:06 10° S 04:22:38 69° E 04:27:06 10° NNE
Cosmos 1733 3.1 04:19:51 10° N 04:23:41 70° E 04:27:36 10° SSE
Cosmos 1805 3.1 04:23:41 10° N 04:27:34 74° E 04:31:32 10° SSE
ATLAS 5 CENTAUR R/B 1.9 04:25:19 10° SW 04:31:12 68° SE 04:35:56 10° NE
COSMOS 2406 3.6 04:27:38 10° SSW 04:33:06 40° SE 04:37:49 13° ENE
USA 267 3.4 04:26:47 10° NE 04:33:23 78° NW 04:40:03 10° SW
Cosmos 1674 4.2 04:30:24 10° SSW 04:34:01 39° W 04:37:36 10° NNW
SMAP 3.2 04:30:03 13° SSE 04:34:12 51° E 04:38:46 10° N
Cosmos 1674 Rocket 3.5 04:30:20 10° S 04:34:45 87° W 04:39:07 10° N
Cosmos 1833 Rocket 2.6 04:36:51 10° SSW 04:42:34 74° ESE 04:48:12 10° NNE
Meteor 1-15 Rocket 4.5 04:37:04 10° NNE 04:42:35 47° E 04:47:06 15° SSE
Cosmos 909 Rocket 4.0 04:37:32 10° NNW 04:44:02 82° ENE 04:48:31 21° SE
Cosmos 1782 Rocket 4.2 04:40:24 10° NNE 04:44:20 35° E 04:44:20 35° E
NOAA 12 4.4 04:42:32 10° S 04:47:50 69° WSW 04:53:04 10° NNW
Cosmos 1908 Rocket 3.5 04:44:41 10° N 04:49:09 72° E 04:52:30 18° SSE
BREEZE-M DEB (TANK) 3.7 04:47:29 10° WSW 04:49:51 42° NNW 04:55:02 10° NE
Iridium 2 3.5 04:48:18 10° N 04:52:02 67° E 04:53:10 41° SSE
Cosmos 1553 Rocket 3.9 04:47:14 10° S 04:53:31 89° E 04:59:50 10° N
CENTAUR R/B 3.9 04:54:07 10° SSW 04:58:11 18° SSE 04:58:45 17° SSE
EXPRESS MD2 4.0 04:58:22 10° W 04:59:42 28° W 04:59:42 28° W
Meteor 1-22 Rocket 4.3 04:55:49 10° NNE 05:00:53 44° E 05:01:25 43° ESE
USA 229 DEB 3.9 04:53:26 10° NNW 05:01:17 76° NE 05:05:33 29° SE
USA 229 3.9 04:53:31 10° NNW 05:01:21 76° NE 05:05:35 29° SE
Cosmos 1939 Rocket 4.5 04:57:49 10° S 05:01:37 35° WSW 05:05:24 10° NW
Landsat 5 4.1 04:58:27 10° N 05:02:13 51° W 05:06:03 10° SSW
ARGOS 3.1 05:02:23 30° SSE 05:04:58 58° E 05:10:17 10° N
NOAA 6 3.9 05:03:57 26° SSE 05:06:55 70° ENE 05:12:06 10° N
Cosmos 1932 4.4 05:02:30 10° SW 05:08:49 85° NW 05:15:00 10° NNE
Meteor 2-5 Rocket 3.6 05:04:55 10° S 05:10:42 65° ESE 05:16:17 10° NNE
SeaSat 1 3.2 05:11:57 35° NE 05:11:57 35° NE 05:15:32 10° N
S3M 3.9 05:06:39 10° S 05:13:09 80° E 05:19:30 10° N
Meteor PRIRODA 4.5 05:11:45 27° S 05:13:30 50° WSW 05:17:04 10° NNW
Meteor 1-12 Rocket 4.4 05:10:40 10° NNW 05:16:31 77° WSW 05:22:34 10° S
Cosmos 494 Rocket 3.9 05:11:44 10° NNW 05:17:02 90° NW 05:18:59 41° SSE
Cosmos 1655 Rocket 4.0 05:11:11 10° N 05:17:33 68° E 05:23:22 13° SSE
CZ-3B R/B 2.7 05:15:47 10° W 05:18:45 35° SW 05:18:45 35° SW
Cosmos 2082 Rocket 2.1 05:13:26 10° SSW 05:19:09 62° ESE 05:19:54 57° E
Meteor 1-24 Rocket 3.5 05:16:43 10° S 05:22:18 69° ESE 05:24:42 34° NNE
Cosmos 1726 3.3 05:24:09 10° NNW 05:27:36 40° WSW 05:28:09 37° SW
ISS -0.7 05:26:45 10° WNW 05:28:20 13° NW 05:29:55 10° NNW
CZ-2D R/B 4.4 05:27:23 32° SSW 05:28:39 43° WSW 05:32:20 10° NW
NOSS 3-1 (A) 4.4 05:20:45 10° NW 05:29:40 68° SW 05:34:00 30° SSE
ATLAS 3B R/B 4.4 05:24:05 10° WSW 05:29:50 24° SSW 05:33:22 17° SSE
Cosmos 883 Rocket 4.4 05:24:00 10° S 05:30:26 74° E 05:36:49 10° NNE
CZ-4C R/B 4.4 05:28:49 10° NNW 05:32:07 38° W 05:35:26 10° SSW
Cosmos 1943 Rocket 4.0 05:28:14 10° N 05:29:30 16° NNE 05:29:30 16° NNE
BREEZE-M DEB (TANK) 4.4 05:31:19 10° W 05:31:51 16° WSW 05:31:51 16° WSW
Cosmos 1331 Rocket 4.0 05:28:45 10° SSW 05:34:04 84° WNW 05:35:19 54° NNE
Cosmos 2278 Rocket 2.3 05:29:07 10° NNW 05:34:47 71° WSW 05:36:31 45° S
H-2A R/B 3.3 05:35:08 10° S 05:40:02 40° WSW 05:45:01 10° NW
USA 215 4.1 05:38:55 34° SSE 05:40:55 41° SSW 05:47:01 10° W
CZ-4C R/B 3.8 05:39:01 10° WNW 05:46:32 40° SW 05:49:41 27° S
Cosmos 2266 Rocket 4.2 05:44:15 10° NNW 05:50:34 70° W 05:57:04 10° S
CZ-4B DEB 4.4 05:55:15 69° NW 05:55:15 69° NW 06:00:07 10° NNW
ATLAS 5 CENTAUR R/B 4.3 06:11:19 10° WSW 06:15:00 19° WNW 06:17:34 13° NW
Cosmos 2082 Rocket 4.4 06:58:25 10° SW 07:01:50 21° W 07:01:50 21° W
